Flight Track Log - Related Links

Times and Time Zones

All times are in EDT time to prevent confusion due to time zone crossing. See the UAL4563 flight status page for this flight to view local times or setup timezone preferences in your user account.

Time Position Orientation Groundspeed Altitude Reporting Facility
EDT Latitude Longitude Course Direction KTS MPH feet Rate Location/Type
Sun 04:59:30 PM 41.4164 -81.8264 86° East 153 176 2,200  Level Cleveland Center
Sun 05:00:10 PM 41.4183 -81.7900 86° East 185 213 3,000 1,475 Climbing Cleveland Center
Sun 05:00:31 PM 41.4147 -81.7536 98° East 247 284 3,700 1,935 Climbing Cleveland Center
Sun 05:01:12 PM 41.3936 -81.7119 124° Southeast 222 255 5,000 1,970 Climbing Cleveland Center
Sun 05:01:38 PM 41.3717 -81.6742 128° Southeast 265 305 5,900 1,839 Climbing Cleveland Center
Sun 05:02:14 PM 41.3483 -81.6317 126° Southeast 254 292 6,900 1,959 Climbing Cleveland Center
Sun 05:03:16 PM 41.2975 -81.5392 126° Southeast 295 339 9,100 1,839 Climbing Cleveland Center
Sun 05:04:18 PM 41.2422 -81.4397 126° Southeast 325 374 10,700 1,210 Climbing Cleveland Center
Sun 05:05:20 PM 41.1819 -81.3333 127° Southeast 358 412 11,600 1,056 Climbing Cleveland Center
Sun 05:06:23 PM 41.1056 -81.1967 127° Southeast 390 449 12,900 1,248 Climbing Cleveland Center
Sun 05:07:25 PM 41.0375 -81.0778 127° Southeast 397 457 14,200 1,161 Climbing Cleveland Center
Sun 05:08:27 PM 40.9389 -81.0136 154° Southeast 400 460 15,300 1,065 Climbing Cleveland Center
Sun 05:09:29 PM 40.8286 -80.9900 171° South 400 460 16,400 1,065 Climbing Cleveland Center
Sun 05:10:31 PM 40.7172 -80.9661 171° South 403 464 17,500 968 Climbing Cleveland Center
Sun 05:11:33 PM 40.6042 -80.9431 171° South 410 472 18,400 1,065 Climbing Cleveland Center
Sun 05:12:35 PM 40.4672 -80.9125 170° South 416 479 19,700 1,113 Climbing Cleveland Center
Sun 05:13:37 PM 40.3514 -80.8886 171° South 421 484 20,700 1,000 Climbing Cleveland Center
Sun 05:15:41 PM 40.1158 -80.8378 161° South 430 495 22,800 1,027 Climbing Cleveland Center
Sun 05:16:44 PM 40.0017 -80.7919 163° South 441 507 23,900 1,104 Climbing Cleveland Center
Sun 05:17:46 PM 39.9122 -80.6375 127° Southeast 452 520 25,100 1,113 Climbing Cleveland Center
Sun 05:18:48 PM 39.8472 -80.4997 122° Southeast 450 518 26,200 919 Climbing Cleveland Center
Sun 05:19:50 PM 39.7831 -80.3614 121° Southeast 450 518 27,000 387 Climbing Cleveland Center
Sun 05:20:52 PM 39.7158 -80.2189 121° Southeast 461 531 27,000  Level Cleveland Center
Sun 05:21:54 PM 39.6456 -80.0703 122° Southeast 480 552 27,000  Level Cleveland Center
Sun 05:22:56 PM 39.5606 -79.8908 122° Southeast 486 559 27,000  Level Cleveland Center
Sun 05:23:58 PM 39.4864 -79.7369 122° Southeast 501 577 27,000 -339 Level Cleveland Center
Sun 05:25:00 PM 39.4122 -79.5836 122° Southeast 502 578 26,300 -1,056 Descending Cleveland Center
Sun 05:26:03 PM 39.3367 -79.4306 123° Southeast 504 580 24,800 -1,104 Descending Cleveland Center
Sun 05:27:05 PM 39.2733 -79.2742 118° Southeast 483 556 24,000 -387 Descending Cleveland Center
Sun 05:28:07 PM 39.2483 -79.0819 99° East 482 555 24,000  Level Cleveland Center
Sun 05:29:09 PM 39.2283 -78.9108 99° East 481 554 24,000  Level Cleveland Center
Sun 05:30:07 PM 39.2058 -78.7336 99° East 479 551 24,000 -864 Level Washington Center
Sun 05:31:07 PM 39.1872 -78.5642 98° East 479 551 22,300 -2,441 Descending Washington Center
Sun 05:32:05 PM 39.1683 -78.3972 98° East 474 545 19,200 -3,305 Descending Washington Center
Sun 05:33:05 PM 39.1322 -78.2433 107° East 462 532 15,800 -2,529 Descending Washington Center
Sun 05:34:06 PM 39.0958 -78.0950 107° East 446 513 14,100 -1,721 Descending Washington Center
Sun 05:35:07 PM 39.0592 -77.9547 109° East 429 494 12,300 -1,613 Descending Washington Center
Sun 05:36:05 PM 39.0261 -77.8175 107° East 405 466 10,900 -1,160 Descending Washington Center
Sun 05:37:06 PM 38.9911 -77.6856 109° East 400 460 10,000 -1,033 Descending Washington Center
Sun 05:38:07 PM 38.9553 -77.5775 113° Southeast 346 398 8,800 -1,008 Descending Washington Center
Sun 05:39:05 PM 38.9214 -77.4833 115° Southeast 331 381 8,000 -900 Descending Washington Center
Sun 05:40:07 PM 38.8833 -77.3889 117° Southeast 320 368 7,000 -1,082 Descending Washington Center
Sun 05:41:07 PM 38.8431 -77.2975 119° Southeast 300 345 5,800 -1,252 Descending Washington Center
Sun 05:42:26 PM 38.7667 -77.2000 135° Southeast 254 292 4,100 -771 Descending Potomac TRACON
Sun 05:43:27 PM 38.7333 -77.1333 123° Southeast 210 242 4,000 -567 Descending Potomac TRACON
Sun 05:44:33 PM 38.7000 -77.0667 123° Southeast 181 208 2,900 -1,095 Descending Potomac TRACON
Sun 05:45:33 PM 38.7500 -77.0333 27° Northeast 170 196 1,700 -900 Descending Potomac TRACON
Sun 05:46:33 PM 38.7833 -77.0333 360° North 155 178 1,100 -600 Descending Potomac TRACON
Sun 05:47:33 PM 38.8167 -77.0333 360° North 130 150 500 -600 Descending Potomac TRACON
Sun 05:49:00 PM 38.8500 -77.0333 North  Level FlightAware Approximate
Sun 05:56:00 PM 38.8519 -77.0377 North  Level Estimated
Sun 05:57:00 PM 38.8500 -77.0333 North  Level FlightAware Approximate
Sun 05:58:00 PM 38.8519 -77.0377 North  Level Estimated
Sun 05:59:00 PM 38.8500 -77.0333 North  Level FlightAware Approximate

Login

Don't have an account? Register now (free) for customized features, flight alerts, and more!